EDW29Y LSZH-EGPH

Flight info

Callsign EDW29Y
Flight time 1h 59m
Altitude 38000
Route VEBIT4S VEBIT T10 TORPA DCT REKLA DCT RLP DCT ROTSI DCT KOTUN DCT AMAXA DCT VESAN DCT RATUK DCT SOVAT L613 LEHOC DCT INPIP INPIP1E
Aircraft A320/M-SDE3FGHIRWY/LB1

Departure

Time 2026-04-26 15:34
Airport Zürich Airport (LSZH)

Arrival

Time 2026-04-26 17:33
Airport Edinburgh Airport (EGPH)
Time Latitude Longitude Altitude Speed Heading
2026-04-26 15:06 47.45185 8.55713 1407 ft 0 kts 186°
2026-04-26 15:22 47.45187 8.55713 1413 ft 2 kts 186°
2026-04-26 15:22 47.45212 8.55713 1411 ft 4 kts 168°
2026-04-26 15:23 47.45237 8.55701 1413 ft 4 kts 148°
2026-04-26 15:23 47.45258 8.55676 1415 ft 4 kts 128°
2026-04-26 15:23 47.45271 8.55642 1407 ft 4 kts 103°
2026-04-26 15:23 47.45273 8.55613 1411 ft 4 kts 82°
2026-04-26 15:24 47.45264 8.55584 1409 ft 4 kts 19°
2026-04-26 15:24 47.45239 8.55582 1411 ft 4 kts 345°
2026-04-26 15:24 47.45213 8.55595 1410 ft 4 kts 336°
2026-04-26 15:24 47.45201 8.55602 1410 ft 0 kts 335°
2026-04-26 15:27 47.45207 8.55599 1405 ft 5 kts 335°
2026-04-26 15:27 47.45264 8.55574 1406 ft 14 kts 349°
2026-04-26 15:28 47.45360 8.55520 1411 ft 15 kts 334°
2026-04-26 15:28 47.45460 8.55451 1411 ft 18 kts 335°
2026-04-26 15:28 47.45585 8.55366 1401 ft 18 kts 337°
2026-04-26 15:28 47.45643 8.55340 1407 ft 10 kts
2026-04-26 15:29 47.45667 8.55446 1409 ft 14 kts 94°
2026-04-26 15:29 47.45656 8.55609 1404 ft 17 kts 96°
2026-04-26 15:29 47.45627 8.56022 1413 ft 21 kts 96°
2026-04-26 15:30 47.45596 8.56449 1416 ft 21 kts 94°
2026-04-26 15:30 47.45581 8.56663 1418 ft 21 kts 96°
2026-04-26 15:30 47.45566 8.56874 1420 ft 20 kts 96°
2026-04-26 15:31 47.45574 8.56991 1422 ft 13 kts 54°
2026-04-26 15:31 47.45667 8.56943 1424 ft 0 kts 279°
2026-04-26 15:32 47.45668 8.56934 1424 ft 0 kts 277°
2026-04-26 15:33 47.45668 8.56933 1424 ft 0 kts 277°
2026-04-26 15:33 47.45668 8.56931 1424 ft 0 kts 277°
2026-04-26 15:33 47.45682 8.56746 1419 ft 55 kts 276°
2026-04-26 15:33 47.45748 8.55805 1412 ft 126 kts 276°
2026-04-26 15:34 47.45849 8.54312 1682 ft 149 kts 276°
2026-04-26 15:34 47.45958 8.52780 2253 ft 152 kts 275°
2026-04-26 15:34 47.46069 8.51214 2760 ft 159 kts 276°
2026-04-26 15:34 47.46192 8.49528 3136 ft 169 kts 275°
2026-04-26 15:35 47.46119 8.47732 3532 ft 184 kts 243°
2026-04-26 15:35 47.45201 8.46405 3983 ft 193 kts 210°
2026-04-26 15:35 47.44102 8.45148 4406 ft 210 kts 228°
2026-04-26 15:35 47.43148 8.43362 4799 ft 232 kts 234°
2026-04-26 15:36 47.42191 8.41309 5267 ft 254 kts 236°
2026-04-26 15:36 47.41141 8.39076 5815 ft 273 kts 234°
2026-04-26 15:36 47.40023 8.36770 6649 ft 279 kts 234°
2026-04-26 15:36 47.38943 8.34354 7508 ft 284 kts 245°
2026-04-26 15:37 47.38475 8.31564 8377 ft 287 kts 270°
2026-04-26 15:37 47.38612 8.28613 9267 ft 289 kts 276°
2026-04-26 15:37 47.38806 8.25646 10130 ft 292 kts 276°
2026-04-26 15:37 47.39011 8.22571 10563 ft 312 kts 276°
2026-04-26 15:38 47.39227 8.19288 11068 ft 327 kts 276°
2026-04-26 15:38 47.39445 8.15927 11832 ft 331 kts 275°
2026-04-26 15:38 47.39662 8.12541 12642 ft 333 kts 275°
2026-04-26 15:38 47.39877 8.09124 13426 ft 335 kts 275°
2026-04-26 15:39 47.40092 8.05684 14179 ft 338 kts 275°
2026-04-26 15:39 47.40307 8.02216 14930 ft 340 kts 275°
2026-04-26 15:39 47.40525 7.98730 15654 ft 342 kts 275°
2026-04-26 15:39 47.40669 7.96407 16119 ft 344 kts 275°
2026-04-26 15:40 47.40958 7.91691 17023 ft 347 kts 275°
2026-04-26 15:40 47.41172 7.88131 17699 ft 348 kts 275°
2026-04-26 15:40 47.41387 7.84557 18327 ft 351 kts 275°
2026-04-26 15:40 47.41602 7.80964 18937 ft 354 kts 275°
2026-04-26 15:41 47.41816 7.77368 19539 ft 356 kts 275°
2026-04-26 15:41 47.42034 7.73709 20132 ft 359 kts 275°
2026-04-26 15:41 47.42253 7.70012 20699 ft 363 kts 275°
2026-04-26 15:41 47.42472 7.66290 21249 ft 366 kts 275°
2026-04-26 15:42 47.42692 7.62528 21793 ft 369 kts 275°
2026-04-26 15:42 47.42913 7.58741 22349 ft 371 kts 275°
2026-04-26 15:42 47.43132 7.54929 22880 ft 374 kts 274°
2026-04-26 15:42 47.43354 7.51091 23394 ft 377 kts 274°
2026-04-26 15:43 47.43576 7.47219 23906 ft 380 kts 274°
2026-04-26 15:43 47.43801 7.43320 24406 ft 382 kts 274°
2026-04-26 15:43 47.44253 7.35438 25317 ft 388 kts 274°
2026-04-26 15:44 47.44477 7.31459 25759 ft 390 kts 275°
2026-04-26 15:44 47.44919 7.23461 26593 ft 395 kts 274°
2026-04-26 15:44 47.45142 7.19411 26991 ft 397 kts 275°
2026-04-26 15:45 47.45589 7.11229 27784 ft 401 kts 275°
2026-04-26 15:45 47.45810 7.07111 28161 ft 403 kts 275°
2026-04-26 15:46 47.46254 6.98809 28864 ft 408 kts 275°
2026-04-26 15:46 47.46473 6.94617 29203 ft 410 kts 275°
2026-04-26 15:46 47.46689 6.90409 29554 ft 411 kts 275°
2026-04-26 15:46 47.46760 6.89037 29663 ft 412 kts 275°
2026-04-26 15:47 47.47049 6.83369 30090 ft 414 kts 275°
2026-04-26 15:47 47.47558 6.73439 30786 ft 419 kts 275°
2026-04-26 15:47 47.47812 6.69140 31063 ft 420 kts 279°
2026-04-26 15:48 47.48179 6.66270 31243 ft 421 kts 285°
2026-04-26 15:48 47.49089 6.62213 31516 ft 422 kts 293°
2026-04-26 15:48 47.50325 6.58212 31778 ft 423 kts 295°
2026-04-26 15:48 47.51557 6.54254 32021 ft 425 kts 295°
2026-04-26 15:49 47.52791 6.50279 32292 ft 425 kts 295°
2026-04-26 15:49 47.54004 6.46359 32638 ft 424 kts 295°
2026-04-26 15:49 47.55243 6.42345 32973 ft 423 kts 295°
2026-04-26 15:49 47.56447 6.38440 33293 ft 422 kts 295°
2026-04-26 15:50 47.57662 6.34495 33615 ft 421 kts 294°
2026-04-26 15:50 47.58875 6.30549 33940 ft 420 kts 295°
2026-04-26 15:50 47.60080 6.26618 34268 ft 418 kts 294°
2026-04-26 15:50 47.61281 6.22698 34581 ft 417 kts 295°
2026-04-26 15:51 47.62482 6.18773 34866 ft 417 kts 295°
2026-04-26 15:51 47.63677 6.14864 35137 ft 417 kts 295°
2026-04-26 15:51 47.64871 6.10946 35393 ft 416 kts 294°
2026-04-26 15:51 47.66064 6.07031 35613 ft 417 kts 295°
2026-04-26 15:52 47.67256 6.03119 35847 ft 417 kts 294°
2026-04-26 15:52 47.68448 5.99199 36077 ft 417 kts 294°
2026-04-26 15:52 47.69636 5.95280 36300 ft 416 kts 295°
2026-04-26 15:52 47.70424 5.92678 36437 ft 417 kts 294°
2026-04-26 15:53 47.72010 5.87419 36710 ft 417 kts 294°
2026-04-26 15:53 47.73188 5.83494 36961 ft 415 kts 294°
2026-04-26 15:53 47.74365 5.79585 37241 ft 413 kts 294°
2026-04-26 15:53 47.75533 5.75702 37518 ft 410 kts 294°
2026-04-26 15:54 47.76694 5.71839 37747 ft 409 kts 294°
2026-04-26 15:54 47.77851 5.67981 37911 ft 409 kts 294°
2026-04-26 15:54 47.79009 5.64115 38076 ft 409 kts 294°
2026-04-26 15:55 47.81307 5.56431 38172 ft 408 kts 294°
2026-04-26 15:55 47.83607 5.48701 38172 ft 408 kts 294°
2026-04-26 15:56 47.85899 5.40968 38173 ft 408 kts 294°
2026-04-26 15:56 47.88199 5.33212 38184 ft 408 kts 294°
2026-04-26 15:57 47.90603 5.25624 38180 ft 407 kts 302°
2026-04-26 15:57 47.94179 5.19088 38174 ft 407 kts 312°
2026-04-26 15:58 47.97998 5.12817 38170 ft 408 kts 311°
2026-04-26 15:58 48.01803 5.06535 38176 ft 407 kts 311°
2026-04-26 15:59 48.05598 5.00248 38181 ft 407 kts 311°
2026-04-26 15:59 48.09358 4.94003 38182 ft 406 kts 312°
2026-04-26 16:00 48.13144 4.87723 38186 ft 406 kts 312°
2026-04-26 16:00 48.16922 4.81450 38195 ft 406 kts 312°
2026-04-26 16:01 48.20689 4.75159 38204 ft 405 kts 312°
2026-04-26 16:01 48.24451 4.68852 38210 ft 406 kts 311°
2026-04-26 16:02 48.28209 4.62526 38210 ft 405 kts 312°
2026-04-26 16:02 48.31959 4.56211 38210 ft 405 kts 312°
2026-04-26 16:03 48.35711 4.49892 38214 ft 405 kts 312°
2026-04-26 16:03 48.39458 4.43563 38217 ft 404 kts 312°
2026-04-26 16:04 48.43172 4.37276 38227 ft 405 kts 311°
2026-04-26 16:04 48.46905 4.30929 38222 ft 404 kts 311°
2026-04-26 16:05 48.50630 4.24569 38227 ft 404 kts 311°
2026-04-26 16:05 48.54356 4.18211 38223 ft 404 kts 311°
2026-04-26 16:06 48.58054 4.11890 38225 ft 404 kts 311°
2026-04-26 16:06 48.61762 4.05526 38225 ft 404 kts 311°
2026-04-26 16:07 48.65471 3.99148 38229 ft 404 kts 311°
2026-04-26 16:07 48.69175 3.92764 38227 ft 403 kts 311°
2026-04-26 16:08 48.73017 3.86595 38221 ft 403 kts 320°
2026-04-26 16:08 48.77559 3.81618 38230 ft 403 kts 324°
2026-04-26 16:09 48.82140 3.76704 38230 ft 403 kts 324°
2026-04-26 16:09 48.86710 3.71774 38231 ft 403 kts 324°
2026-04-26 16:10 48.91279 3.66821 38226 ft 403 kts 324°
2026-04-26 16:10 48.95848 3.61861 38233 ft 403 kts 324°
2026-04-26 16:11 49.00416 3.56896 38236 ft 403 kts 323°
2026-04-26 16:11 49.04978 3.51930 38234 ft 403 kts 323°
2026-04-26 16:12 49.09511 3.46979 38229 ft 403 kts 323°
2026-04-26 16:12 49.16345 3.39489 38235 ft 403 kts 323°
2026-04-26 16:13 49.20895 3.34487 38225 ft 403 kts 323°
2026-04-26 16:13 49.25448 3.29468 38228 ft 403 kts 323°
2026-04-26 16:14 49.29998 3.24447 38238 ft 403 kts 323°
2026-04-26 16:15 49.36800 3.16917 38236 ft 403 kts 323°
2026-04-26 16:15 49.41356 3.11870 38243 ft 403 kts 323°
2026-04-26 16:16 49.48169 3.04280 38242 ft 403 kts 323°
2026-04-26 16:16 49.52703 2.99200 38243 ft 403 kts 323°
2026-04-26 16:17 49.57213 2.94158 38243 ft 403 kts 323°
2026-04-26 16:17 49.61766 2.89077 38245 ft 404 kts 323°
2026-04-26 16:18 49.68563 2.81425 38245 ft 403 kts 322°
2026-04-26 16:19 49.75367 2.73726 38241 ft 404 kts 322°
2026-04-26 16:20 49.82142 2.66043 38247 ft 404 kts 322°
2026-04-26 16:20 49.88951 2.58310 38253 ft 405 kts 322°
2026-04-26 16:21 49.93499 2.53136 38253 ft 405 kts 322°
2026-04-26 16:21 49.98038 2.47942 38254 ft 405 kts 322°
2026-04-26 16:22 50.02575 2.42731 38255 ft 405 kts 322°
2026-04-26 16:22 50.07116 2.37519 38254 ft 405 kts 322°
2026-04-26 16:23 50.11649 2.32308 38256 ft 405 kts 322°
2026-04-26 16:23 50.16179 2.27081 38258 ft 405 kts 322°
2026-04-26 16:24 50.20703 2.21838 38259 ft 405 kts 322°
2026-04-26 16:24 50.25197 2.16614 38260 ft 405 kts 322°
2026-04-26 16:25 50.29723 2.11356 38265 ft 405 kts 322°
2026-04-26 16:25 50.34249 2.06084 38270 ft 405 kts 322°
2026-04-26 16:26 50.38004 2.01650 38270 ft 405 kts 320°
2026-04-26 16:26 50.43014 1.94973 38265 ft 404 kts 317°
2026-04-26 16:27 50.47199 1.89093 38270 ft 404 kts 317°
2026-04-26 16:27 50.51407 1.83246 38268 ft 404 kts 317°
2026-04-26 16:28 50.55622 1.77471 38274 ft 404 kts 317°
2026-04-26 16:28 50.59870 1.71658 38273 ft 405 kts 317°
2026-04-26 16:29 50.64110 1.65827 38274 ft 405 kts 317°
2026-04-26 16:29 50.68358 1.59965 38278 ft 405 kts 317°
2026-04-26 16:30 50.72603 1.54078 38286 ft 405 kts 317°
2026-04-26 16:30 50.76808 1.48233 38288 ft 405 kts 317°
2026-04-26 16:31 50.81039 1.42350 38293 ft 405 kts 317°
2026-04-26 16:31 50.85274 1.36449 38297 ft 405 kts 317°
2026-04-26 16:32 50.88794 1.31539 38297 ft 405 kts 317°
2026-04-26 16:32 50.93710 1.24650 38300 ft 406 kts 317°
2026-04-26 16:33 50.97938 1.18710 38304 ft 406 kts 317°
2026-04-26 16:33 51.02169 1.12751 38307 ft 406 kts 316°
2026-04-26 16:34 51.06400 1.06828 38308 ft 405 kts 320°
2026-04-26 16:34 51.10998 1.01703 38306 ft 406 kts 323°
2026-04-26 16:35 51.15643 0.96573 38304 ft 406 kts 323°
2026-04-26 16:35 51.19500 0.92290 38303 ft 406 kts 323°
2026-04-26 16:36 51.24140 0.87133 38301 ft 406 kts 323°
2026-04-26 16:36 51.28774 0.81969 38307 ft 407 kts 323°
2026-04-26 16:37 51.33410 0.76781 38308 ft 406 kts 322°
2026-04-26 16:37 51.38038 0.71593 38311 ft 406 kts 322°
2026-04-26 16:38 51.42674 0.66396 38312 ft 406 kts 322°
2026-04-26 16:38 51.47301 0.61188 38311 ft 407 kts 322°
2026-04-26 16:39 51.51931 0.55972 38310 ft 407 kts 322°
2026-04-26 16:39 51.56536 0.50762 38309 ft 407 kts 322°
2026-04-26 16:40 51.61161 0.45505 38309 ft 407 kts 322°
2026-04-26 16:40 51.65789 0.40241 38309 ft 407 kts 322°
2026-04-26 16:41 51.70418 0.34963 38309 ft 408 kts 322°
2026-04-26 16:41 51.75052 0.29665 38311 ft 408 kts 322°
2026-04-26 16:42 51.79680 0.24352 38313 ft 408 kts 322°
2026-04-26 16:42 51.84306 0.19038 38318 ft 408 kts 322°
2026-04-26 16:43 51.88942 0.13703 38323 ft 408 kts 322°
2026-04-26 16:43 51.93569 0.08367 38325 ft 409 kts 322°
2026-04-26 16:44 51.98197 0.03010 38325 ft 409 kts 322°
2026-04-26 16:44 52.02865 -0.02290 38321 ft 410 kts 326°
2026-04-26 16:45 52.07883 -0.06707 38307 ft 413 kts 328°
2026-04-26 16:45 52.12966 -0.11163 38305 ft 414 kts 328°
2026-04-26 16:46 52.18050 -0.15623 38304 ft 415 kts 328°
2026-04-26 16:46 52.23104 -0.20073 38301 ft 415 kts 328°
2026-04-26 16:47 52.28179 -0.24558 38300 ft 415 kts 328°
2026-04-26 16:47 52.33254 -0.29059 38296 ft 415 kts 328°
2026-04-26 16:48 52.38336 -0.33560 38290 ft 415 kts 328°
2026-04-26 16:48 52.43415 -0.38065 38285 ft 415 kts 328°
2026-04-26 16:49 52.48486 -0.42578 38281 ft 415 kts 328°
2026-04-26 16:49 52.53547 -0.47105 38276 ft 414 kts 328°
2026-04-26 16:50 52.58610 -0.51648 38269 ft 414 kts 328°
2026-04-26 16:50 52.63670 -0.56203 38268 ft 414 kts 328°
2026-04-26 16:51 52.68697 -0.60730 38271 ft 415 kts 328°
2026-04-26 16:51 52.73786 -0.65328 38271 ft 414 kts 328°
2026-04-26 16:52 52.77994 -0.69142 38277 ft 415 kts 327°
2026-04-26 16:52 52.83872 -0.74487 38283 ft 415 kts 327°
2026-04-26 16:53 52.88937 -0.79095 38295 ft 415 kts 327°
2026-04-26 16:53 52.93989 -0.83710 38299 ft 415 kts 327°
2026-04-26 16:54 52.99041 -0.88340 38302 ft 415 kts 327°
2026-04-26 16:54 53.04094 -0.92966 38308 ft 415 kts 327°
2026-04-26 16:55 53.09148 -0.97615 38309 ft 415 kts 327°
2026-04-26 16:55 53.14199 -1.02278 38310 ft 415 kts 327°
2026-04-26 16:56 53.21734 -1.09269 38308 ft 415 kts 327°
2026-04-26 16:57 53.26784 -1.13960 38308 ft 415 kts 327°
2026-04-26 16:57 53.34350 -1.21017 38306 ft 415 kts 327°
2026-04-26 16:58 53.38566 -1.24971 38301 ft 415 kts 327°
2026-04-26 16:59 53.46937 -1.32842 38295 ft 414 kts 327°
2026-04-26 17:00 53.56992 -1.42322 38293 ft 414 kts 327°
2026-04-26 17:00 53.64528 -1.49475 38289 ft 415 kts 326°
2026-04-26 17:01 53.69564 -1.54224 38287 ft 415 kts 327°
2026-04-26 17:01 53.74556 -1.59117 38293 ft 414 kts 324°
2026-04-26 17:02 53.79378 -1.64405 38291 ft 412 kts 322°
2026-04-26 17:02 53.84121 -1.69867 38290 ft 412 kts 322°
2026-04-26 17:03 53.88880 -1.75276 38290 ft 412 kts 322°
2026-04-26 17:03 53.93631 -1.80607 38278 ft 411 kts 322°
2026-04-26 17:04 53.98434 -1.86006 38276 ft 411 kts 322°
2026-04-26 17:04 54.03193 -1.91403 38276 ft 411 kts 322°
2026-04-26 17:05 54.07918 -1.96775 38275 ft 411 kts 322°
2026-04-26 17:05 54.12677 -2.02189 38277 ft 412 kts 322°
2026-04-26 17:06 54.15056 -2.04908 38126 ft 413 kts 322°
2026-04-26 17:06 54.17441 -2.07632 37753 ft 411 kts 322°
2026-04-26 17:06 54.19807 -2.10333 37225 ft 409 kts 322°
2026-04-26 17:06 54.22168 -2.13035 36619 ft 408 kts 322°
2026-04-26 17:07 54.24522 -2.15733 35996 ft 407 kts 321°
2026-04-26 17:07 54.26875 -2.18438 35291 ft 408 kts 321°
2026-04-26 17:07 54.29227 -2.21150 34681 ft 409 kts 321°
2026-04-26 17:07 54.31581 -2.23864 34185 ft 408 kts 321°
2026-04-26 17:08 54.33937 -2.26577 33784 ft 406 kts 321°
2026-04-26 17:08 54.36271 -2.29273 33379 ft 404 kts 321°
2026-04-26 17:08 54.38594 -2.31959 32972 ft 402 kts 321°
2026-04-26 17:08 54.40915 -2.34645 32581 ft 400 kts 321°
2026-04-26 17:09 54.43216 -2.37312 32181 ft 398 kts 321°
2026-04-26 17:09 54.44734 -2.39076 31914 ft 397 kts 321°
2026-04-26 17:09 54.47785 -2.42625 31380 ft 394 kts 321°
2026-04-26 17:09 54.50049 -2.45266 30980 ft 392 kts 321°
2026-04-26 17:10 54.52305 -2.47904 30576 ft 391 kts 321°
2026-04-26 17:10 54.54551 -2.50531 30177 ft 389 kts 320°
2026-04-26 17:10 54.56783 -2.53143 29778 ft 387 kts 321°
2026-04-26 17:10 54.58973 -2.55710 29381 ft 385 kts 321°
2026-04-26 17:11 54.61183 -2.58300 28983 ft 384 kts 321°
2026-04-26 17:11 54.63389 -2.60890 28579 ft 382 kts 321°
2026-04-26 17:11 54.65581 -2.63465 28178 ft 380 kts 321°
2026-04-26 17:11 54.67765 -2.66034 27773 ft 379 kts 321°
2026-04-26 17:12 54.72098 -2.71139 26975 ft 375 kts 321°
2026-04-26 17:12 54.74249 -2.73677 26570 ft 373 kts 321°
2026-04-26 17:13 54.78514 -2.78730 25767 ft 370 kts 321°
2026-04-26 17:13 54.80636 -2.81248 25358 ft 368 kts 321°
2026-04-26 17:13 54.84826 -2.86235 24566 ft 365 kts 322°
2026-04-26 17:14 54.86921 -2.88705 24166 ft 364 kts 324°
2026-04-26 17:14 54.91527 -2.92414 23362 ft 365 kts 334°
2026-04-26 17:14 54.93864 -2.94098 22961 ft 362 kts 334°
2026-04-26 17:15 54.98491 -2.97449 22158 ft 358 kts 333°
2026-04-26 17:15 55.00787 -2.99115 21755 ft 356 kts 333°
2026-04-26 17:15 55.03068 -3.00770 21362 ft 354 kts 333°
2026-04-26 17:16 55.05335 -3.02413 20957 ft 352 kts 334°
2026-04-26 17:16 55.07593 -3.04055 20567 ft 350 kts 333°
2026-04-26 17:16 55.09829 -3.05688 20154 ft 348 kts 333°
2026-04-26 17:16 55.12053 -3.07318 19750 ft 346 kts 334°
2026-04-26 17:17 55.14265 -3.08938 19353 ft 344 kts 334°
2026-04-26 17:17 55.16368 -3.10756 18952 ft 340 kts 328°
2026-04-26 17:17 55.18450 -3.12695 18548 ft 338 kts 328°
2026-04-26 17:17 55.20521 -3.14623 18153 ft 336 kts 328°
2026-04-26 17:18 55.22582 -3.16545 17748 ft 334 kts 328°
2026-04-26 17:18 55.24630 -3.18457 17360 ft 333 kts 328°
2026-04-26 17:18 55.26665 -3.20361 16977 ft 331 kts 328°
2026-04-26 17:18 55.28689 -3.22257 16596 ft 329 kts 328°
2026-04-26 17:19 55.32708 -3.26029 15851 ft 326 kts 328°
2026-04-26 17:19 55.34706 -3.27911 15468 ft 324 kts 328°
2026-04-26 17:19 55.36690 -3.29782 15069 ft 323 kts 328°
2026-04-26 17:20 55.38668 -3.31644 14666 ft 322 kts 328°
2026-04-26 17:20 55.39334 -3.32271 14529 ft 321 kts 328°
2026-04-26 17:20 55.42611 -3.35358 13819 ft 321 kts 328°
2026-04-26 17:20 55.44580 -3.37214 13398 ft 320 kts 328°
2026-04-26 17:21 55.46534 -3.39060 12977 ft 318 kts 328°
2026-04-26 17:21 55.48477 -3.40907 12553 ft 317 kts 328°
2026-04-26 17:21 55.50388 -3.42722 12123 ft 313 kts 328°
2026-04-26 17:21 55.52270 -3.44509 11675 ft 302 kts 328°
2026-04-26 17:22 55.54093 -3.46223 11262 ft 290 kts 328°
2026-04-26 17:22 55.55858 -3.47888 10891 ft 287 kts 328°
2026-04-26 17:22 55.57050 -3.49015 10598 ft 289 kts 328°
2026-04-26 17:22 55.58817 -3.50699 10325 ft 283 kts 328°
2026-04-26 17:23 55.60495 -3.52299 10232 ft 272 kts 328°
2026-04-26 17:23 55.62151 -3.53883 9785 ft 264 kts 328°
2026-04-26 17:23 55.63726 -3.55400 9357 ft 257 kts 327°
2026-04-26 17:23 55.65166 -3.57157 8972 ft 246 kts 317°
2026-04-26 17:24 55.66431 -3.59125 8572 ft 239 kts 313°
2026-04-26 17:24 55.67614 -3.61116 8207 ft 230 kts 313°
2026-04-26 17:24 55.68760 -3.63057 7853 ft 227 kts 313°
2026-04-26 17:24 55.69929 -3.64958 7480 ft 229 kts 315°
2026-04-26 17:25 55.71134 -3.66782 7128 ft 231 kts 316°
2026-04-26 17:25 55.72372 -3.68604 6777 ft 231 kts 317°
2026-04-26 17:25 55.73618 -3.70419 6430 ft 232 kts 317°
2026-04-26 17:25 55.74854 -3.72207 6083 ft 225 kts 317°
2026-04-26 17:26 55.76025 -3.73984 5745 ft 220 kts 313°
2026-04-26 17:26 55.77121 -3.75882 5400 ft 220 kts 311°
2026-04-26 17:26 55.78292 -3.77636 5122 ft 220 kts 331°
2026-04-26 17:26 55.79773 -3.78131 5088 ft 219 kts
2026-04-26 17:27 55.81152 -3.77167 4948 ft 212 kts 39°
2026-04-26 17:27 55.82047 -3.75157 4741 ft 206 kts 59°
2026-04-26 17:27 55.82778 -3.73012 4483 ft 205 kts 59°
2026-04-26 17:27 55.83518 -3.70851 4211 ft 205 kts 59°
2026-04-26 17:28 55.84262 -3.68687 3936 ft 205 kts 59°
2026-04-26 17:28 55.84998 -3.66545 3692 ft 200 kts 59°
2026-04-26 17:28 55.85719 -3.64445 3398 ft 196 kts 59°
2026-04-26 17:28 55.86420 -3.62403 3137 ft 191 kts 59°
2026-04-26 17:29 55.87104 -3.60407 2890 ft 187 kts 59°
2026-04-26 17:29 55.87558 -3.59080 2733 ft 184 kts 59°
2026-04-26 17:29 55.88433 -3.56522 2405 ft 180 kts 60°
2026-04-26 17:29 55.89081 -3.54627 2159 ft 178 kts 60°
2026-04-26 17:30 55.89710 -3.52788 1929 ft 165 kts 59°
2026-04-26 17:30 55.90278 -3.51124 1736 ft 149 kts 60°
2026-04-26 17:30 55.90790 -3.49623 1521 ft 139 kts 59°
2026-04-26 17:30 55.91285 -3.48169 1333 ft 136 kts 59°
2026-04-26 17:31 55.91773 -3.46743 1161 ft 134 kts 59°
2026-04-26 17:31 55.92255 -3.45322 997 ft 133 kts 59°
2026-04-26 17:31 55.92737 -3.43908 812 ft 133 kts 59°
2026-04-26 17:31 55.93214 -3.42498 648 ft 133 kts 59°
2026-04-26 17:32 55.93694 -3.41091 461 ft 133 kts 59°
2026-04-26 17:32 55.94172 -3.39694 279 ft 132 kts 59°
2026-04-26 17:32 55.94646 -3.38289 126 ft 127 kts 59°
2026-04-26 17:32 55.95051 -3.37094 113 ft 97 kts 59°
2026-04-26 17:33 55.95358 -3.36192 110 ft 76 kts 58°
2026-04-26 17:33 55.95528 -3.35691 112 ft 34 kts 58°
2026-04-26 17:33 55.95537 -3.35482 113 ft 17 kts 143°
2026-04-26 17:34 55.95470 -3.35411 113 ft 0 kts 149°
2026-04-26 17:35 55.95467 -3.35409 116 ft 4 kts 154°
2026-04-26 17:35 55.95400 -3.35496 114 ft 16 kts 240°
2026-04-26 17:35 55.95340 -3.35672 115 ft 17 kts 239°
2026-04-26 17:36 55.95276 -3.35863 114 ft 19 kts 239°
2026-04-26 17:36 55.95220 -3.35990 114 ft 5 kts 182°
2026-04-26 17:36 55.95149 -3.35927 116 ft 16 kts 149°
2026-04-26 17:36 55.95085 -3.35791 116 ft 12 kts 153°
2026-04-26 17:37 55.95010 -3.35834 113 ft 11 kts 209°
2026-04-26 17:37 55.94944 -3.35853 113 ft 9 kts 159°
2026-04-26 17:37 55.94906 -3.35771 116 ft 8 kts 120°
2026-04-26 17:38 55.94853 -3.35637 112 ft 4 kts 169°
2026-04-26 17:38 55.94826 -3.35656 113 ft 4 kts 208°
2026-04-26 17:38 55.94805 -3.35676 113 ft 2 kts 208°
2026-04-26 17:38 55.94799 -3.35682 115 ft 0 kts 208°
2026-04-26 17:39 55.94795 -3.35685 116 ft 0 kts 208°
2026-04-26 17:39 55.94795 -3.35686 116 ft 0 kts 208°